This is the latest recevied weather packets stored in our database for station/object N3FYI-5. If no packets are shown the sender has not sent any weather packets the latest 10 day(s).
| Time | Temp. | Humidity | Pressure | Rain* | Wind** | Luminosity | Snow |
|---|---|---|---|---|---|---|---|
| 1777499079 | 9.44° C | 51% | 1015.1 hPa | 5.08 mm | - | - | - |
| 1777498599 | 9.44° C | 51% | 1015.1 hPa | 4.32 mm | - | - | - |
| 1777498119 | 9.44° C | 51% | 1015.1 hPa | 4.06 mm | - | - | - |
| 1777497639 | 9.44° C | 51% | 1015.2 hPa | 3.05 mm | - | - | - |
| 1777497159 | 9.44° C | 51% | 1015.2 hPa | 2.79 mm | - | - | - |
| 1777496679 | 9.44° C | 51% | 1015.2 hPa | 1.78 mm | - | - | - |
| 1777496199 | 9.44° C | 51% | 1015.2 hPa | 1.52 mm | - | - | - |
| 1777495240 | 10° C | 51% | 1015.1 hPa | 1.02 mm | - | - | - |
| 1777494760 | 10° C | 51% | 1015.2 hPa | 0.76 mm | - | - | - |
| 1777494282 | 10° C | 51% | 1015.5 hPa | 0.25 mm | - | - | - |
| 1777493800 | 10° C | 51% | 1015.8 hPa | 0.51 mm | - | - | - |
| 1777493321 | 10° C | 51% | 1015.8 hPa | 0.51 mm | - | - | - |
| 1777492840 | 10° C | 51% | 1016 hPa | 0.51 mm | - | - | - |
| 1777492360 | 10° C | 51% | 1016.1 hPa | 0.76 mm | - | - | - |
| 1777491883 | 10° C | 51% | 1016.5 hPa | 1.02 mm | - | - | - |
| 1777491400 | 10° C | 51% | 1016.6 hPa | 1.27 mm | - | - | - |
| 1777490923 | 10° C | 51% | 1017 hPa | 1.52 mm | - | - | - |
| 1777490442 | 10° C | 51% | 1017.4 hPa | 1.27 mm | - | - | - |
| 1777489960 | 10° C | 51% | 1017.4 hPa | 1.52 mm | - | - | - |
| 1777489486 | 10° C | 52% | 1017.6 hPa | 1.27 mm | - | - | - |
| 1777489000 | 9.44° C | 52% | 1017.8 hPa | 1.02 mm | - | - | - |
| 1777488520 | 9.44° C | 52% | 1018 hPa | 0.76 mm | - | - | - |
| 1777488040 | 9.44° C | 52% | 1018 hPa | 0.76 mm | - | - | - |
| 1777487561 | 9.44° C | 52% | 1018 hPa | 2.29 mm | - | - | - |
| 1777487086 | 9.44° C | 52% | 1018 hPa | 3.05 mm | - | - | - |
* Rain latest hour (hover to see other rain measurements)
** Current wind speed in m/s (hover to see current wind gust speed)